GOES 1 (SMS-C) 1 08366U 75100A 25258.56576920 -.00000167 00000+0 00000+0 0 9991 2 08366 5.3122 280.8574 0004756 318.2105 224.7302 1.00231137182317 GOES 2 1 10061U 77048A 25258.49938223 -.00000190 00000+0 00000+0 0 9995 2 10061 7.0775 295.6120 0010707 43.5559 125.6050 0.99396424 43548 GOES 3 1 10953U 78062A 25258.79760359 -.00000198 00000+0 00000+0 0 9996 2 10953 7.5263 301.2284 0002517 272.9093 62.3855 0.99364779125809 GOES 4 1 11964U 80074A 25258.70036314 .00000061 00000+0 00000+0 0 9991 2 11964 8.5858 304.9748 0030527 104.5202 61.2848 0.99229259124714 GOES 5 1 12472U 81049A 25258.43951024 -.00000294 00000+0 00000+0 0 9992 2 12472 9.8539 317.4391 0003611 282.9548 205.7313 1.00265812120097 GOES 6 1 14050U 83041A 25258.42679998 -.00000247 00000+0 00000+0 0 9994 2 14050 10.6315 322.9887 0003793 233.0271 231.8599 1.00241472213269 GOES 7 1 17561U 87022A 25258.85574576 -.00000224 00000+0 00000+0 0 9995 2 17561 13.1772 339.5553 0000807 85.1972 333.9498 0.99891850124222 GOES 8 1 23051U 94022A 25258.78339020 -.00000111 00000+0 00000+0 0 9994 2 23051 14.1946 15.7317 0003408 90.9271 93.2783 0.98904189121414 GOES 9 1 23581U 95025A 25258.85603781 -.00000084 00000+0 00000+0 0 9991 2 23581 13.7172 16.5164 0008311 170.4701 214.9663 0.98798503110055 GOES 10 1 24786U 97019A 25258.82828769 .00000017 00000+0 00000+0 0 9991 2 24786 12.8021 23.0384 0031621 227.8895 119.1170 0.99120735103344 GOES 11 1 26352U 00022A 25258.78971689 -.00000243 00000+0 00000+0 0 9997 2 26352 11.2182 49.0543 0004394 197.2151 348.0937 0.99043517 49753 GOES 12 1 26871U 01031A 25258.46510146 -.00000084 00000+0 00000+0 0 9999 2 26871 11.6820 39.5420 0004284 276.8261 120.2999 0.99135378 88044 EWS-G1 (GOES 13) 1 29155U 06018A 25258.67098300 .00000030 00000+0 00000+0 0 9993 2 29155 3.8143 79.7623 0058868 267.2643 325.6174 0.98783929 40537 GOES 14 1 35491U 09033A 25258.63440951 -.00000084 00000+0 00000+0 0 9992 2 35491 0.9658 86.5822 0003802 108.0852 280.2328 1.00269662 3842 EWS-G2 (GOES 15) 1 36411U 10008A 25258.73944998 .00000021 00000+0 00000+0 0 9990 2 36411 0.5797 85.4108 0005161 137.4624 99.6292 1.00270739 56884 GOES 16 1 41866U 16071A 25258.63518951 -.00000108 00000+0 00000+0 0 9998 2 41866 0.1129 87.2011 0002408 127.9819 263.6658 1.00270724 32352 GOES 17 1 43226U 18022A 25258.63804953 -.00000199 00000+0 00000+0 0 9998 2 43226 0.2268 92.7093 0002698 151.0664 251.2680 1.00271075 27674 GOES 18 1 51850U 22021A 25258.70010314 .00000080 00000+0 00000+0 0 9990 2 51850 0.0357 30.9939 0000715 221.8436 217.1080 1.00270154 3842 GOES 19 1 60133U 24119A 25258.56966922 -.00000265 00000+0 00000+0 0 9999 2 60133 0.0188 354.1400 0000836 268.0696 222.4485 1.00272488 4219